Hourly Data Report for April 11, 2018

KENORA A
ONTARIO
Current Station Operator: NAVCAN

49°47'18.000" N
94°21'47.000" W
409.70 m
6034076
71850
YQK

Download Data

Hourly Data (April 2018)
Hourly Data Report for April 11, 2018
TIME
LST
Temp Definition
°C
Dew Point Definition
°C
Rel Hum Definition
%
Precip. Amount Definition
mm

Wind Dir Definition
10's deg

Wind Spd Definition
km/h
Visibility Definition
km
Stn Press Definition
kPa
Hmdx Definition


Wind Chill Definition


Weather Definition


00:00 -5.1 -6.9 87   22 13 19.3 96.00   -10 Clear
01:00 -3.5 -6.6 79   30 9 24.1 96.08   -7 LegendNANA
02:00 -3.5 -5.8 84   30 13 16.1 96.17   -8 LegendNANA
03:00 -4.2 -6.2 86   32 12 24.1 96.18   -9 Mainly Clear
04:00 -5.3 -7.6 84   33 12 24.1 96.22   -10 LegendNANA
05:00 -6.0 -8.7 81   31 9 24.1 96.28   -10 LegendNANA
06:00 -6.9 -9.5 82   34 9 24.1 96.34   -11 Mainly Clear
07:00 -6.8 -9.8 79   2 9 24.1 96.36   -11 LegendNANA
08:00 -5.7 -9.2 76   5 10 24.1 96.38   -10 LegendNANA
09:00 -4.7 -9.2 71   10 7 24.1 96.38   -8 Mainly Clear
10:00 -3.4 -10.2 60   10 3 24.1 96.37   -5 LegendNANA
11:00 -2.4 -12.8 45   12 6 24.1 96.38   -5 LegendNANA
12:00 -1.0 -11.2 46   33 8 24.1 96.32   -4 Mostly Cloudy
13:00 -0.1 -11.6 42   25 10 24.1 96.25   -3 LegendNANA
14:00 1.0 -10.9 41   27 9 24.1 96.22     LegendNANA
15:00 1.3 -11.7 38   25 15 24.1 96.18     Mostly Cloudy
16:00 0.9 -9.8 45   21 8 24.1 96.14     LegendNANA
17:00 1.0 -11.1 40   20 12 24.1 96.09     LegendNANA
18:00 0.6 -11.6 40   19 9 24.1 96.04     Mostly Cloudy
19:00 0.0 -10.6 45   19 7 24.1 96.00   -2 LegendNANA
20:00 -0.7 -10.2 49   20 7 24.1 95.99   -3 LegendNANA
21:00 -0.6 -10.7 47   26 5 24.1 95.99   -2 Mostly Cloudy
22:00 -1.2 -10.2 51   32 12 24.1 96.00   -5 LegendNANA
23:00 -2.2 -12.7 45   34 11 24.1 95.98   -6 LegendNANA

Notes on Data Quality.

Legend

  • E = Estimated
  • M = Missing
  • NA = Not Available*
  • [empty] = Indicates an unobserved value
Date modified: